Regional Weather Roundup
Issued by NWS

Home | Current Version | Previous Version | Text Only | Print | Product List | Glossary On
Versions: 1 2 3 4 5 6 7 8 9 10 11 12 13 14 15 16 17 18 19 20 21 22 23 24 25 26 27 28 29 30 31 32 33 34 35 36 37 38 39 40 41 42 43 44 45 46 47 48 49 50
000
ASUS43 KMKX 250910
RWRWI

WISCONSIN REGIONAL WEATHER ROUNDUP
NATIONAL WEATHER SERVICE MILWAUKEE/SULLIVAN WI
400 AM CDT FRI JUL 25 2014

NOTE: "FAIR" INDICATES FEW OR NO CLOUDS BELOW 12,000 FEET WITH NO
SIGNIFICANT WEATHER AND/OR OBSTRUCTIONS TO VISIBILITY.

WIZ001-002-006>008-014>016-023>028-251000-
NORTHWEST WISCONSIN

CITY           SKY/WX    TMP DP  RH WIND       PRES   REMARKS
SUPERIOR ARPT  CLOUDY    57  55  91 NE3       29.87S
ASHLAND        MOCLDY    59  57  93 W3        29.91R
HAYWARD        MOCLDY    65  60  84 S5        29.91R
SIREN          CLOUDY    66  59  77 S6        29.88S
RICE LAKE      CLOUDY    64  58  82 S8        29.92S
LADYSMITH      CLOUDY    63  58  86 S5        29.96R
EAU CLAIRE     CLOUDY    67  60  78 S8        29.92R
MENOMONIE      CLOUDY    67  60  78 S8        29.92S
NEW RICHMOND   CLOUDY    65  58  78 S8        29.89F
OSCEOLA        CLOUDY    67  60  77 SE5       29.91F
$$

WIZ003>005-009-010-017-018-251000-
NORTH CENTRAL WISCONSIN

CITY           SKY/WX    TMP DP  RH WIND       PRES   REMARKS
WOODRUFF       MOCLDY    62  55  79 S5        29.94S
RHINELANDER    PTCLDY    58  54  86 SW5       29.95F
EAGLE RIVER    MOCLDY    58  52  81 CALM      29.94F
LAND O LAKES   CLOUDY    55  54  97 CALM      29.95F
PHILLIPS       MOCLDY    62  57  84 S5        29.93R
TOMAHAWK       PTCLDY    56  54  92 CALM      29.96R
MEDFORD        MOCLDY    61  58  90 S6        29.96R
MERRILL        PTCLDY    57  56  95 CALM      29.95S
$$

WIZ029-030-035-036-043>047-251000-
CENTRAL WISCONSIN

CITY           SKY/WX    TMP DP  RH WIND       PRES   REMARKS
WAUSAU         PTCLDY    63  58  83 S7        29.95S
MOSINEE        CLEAR     59  59 100 S7        29.97S
MARSHFIELD     MOCLDY    62  58  86 SW7       29.96R
STEVENS POINT  CLEAR     60  55  85 S8        29.97R
WAUPACA        PTCLDY    60  55  82 S3        29.97F
WAUTOMA        CLEAR     59  55  86 W5        29.99S
WISC RAPIDS    PTCLDY    62  57  83 S8        29.98R
CAMP DOUGLAS   PTCLDY    63  60  88 S8        29.97S
$$

WIZ011>013-019>022-031-037>040-048>050-251000-
NORTHEAST WISCONSIN

CITY           SKY/WX    TMP DP  RH WIND       PRES   REMARKS
ANTIGO         CLOUDY    56  55  95 S6        29.97S
STURGEON BAY   MOCLDY    61  45  55 SW10      29.98S
GREEN BAY      CLOUDY    60  50  69 S7        29.96F
MANITOWOC      LGT RAIN  62  47  57 SW5       29.99F
APPLETON       CLOUDY    61  48  63 S7        29.98F
CLINTONVILLE   CLOUDY    59  50  72 S3        29.96F
OSHKOSH        MOCLDY    61  49  64 S10       29.97F
$$

WIZ032>034-041-042-053>061-251000-
SOUTHWEST WISCONSIN

CITY           SKY/WX    TMP DP  RH WIND       PRES   REMARKS
LA CROSSE      CLOUDY    69  59  70 S9        29.95R
SPARTA         PTCLDY    65  56  74 S5        29.96R
VIROQUA        PTSUNNY   63  58  84 S8        29.98F
BOSCOBEL       MOCLDY    61  58  90 S3        29.99R
PRAIRIE DU CHI CLOUDY    65  56  73 SE7       29.97S
PLATTEVILLE    FAIR      61  56  85 SE7       30.01S
$$

WIZ056-057-062-063-064-067-068-251000-
SOUTH CENTRAL WISCONSIN

CITY           SKY/WX    TMP DP  RH WIND       PRES   REMARKS
BARABOO/DELLS  CLEAR     61  54  77 S7        29.99R
LONE ROCK      MOCLDY    67  57  70 CALM      29.99F
WATERTOWN      PTCLDY    56  48  75 S5        30.01F
MADISON        CLEAR     64  51  62 S12       30.02R
MIDDLETON      FAIR      63  53  70 S6        30.01F
MONROE         PTCLDY    59  52  77 S10       30.02S
JANESVILLE     CLEAR     55  46  71 CALM      30.03F
$$

WIZ051-052-058>065-066-070>072-251000-
SOUTHEAST WISCONSIN

CITY           SKY/WX    TMP DP  RH WIND       PRES   REMARKS
MILWAUKEE      PTCLDY    60  45  57 SW10      30.03F
WAUKESHA       PTCLDY    55  45  67 S7        30.04R
MILWAUKEE/TIMM PTCLDY    55  43  62 SW5       30.03S
RACINE         PTCLDY    58  48  69 SW7       30.05F
BURLINGTON     PTCLDY    49  47  92 SW5       30.05R
KENOSHA        PTCLDY    56  49  77 SW6       30.04F
FOND DU LAC    MOCLDY    61  47  59 S8        29.99F
SHEBOYGAN      PTCLDY    58  46  64 SW7       29.99F
WEST BEND      MOCLDY    55  45  67 SW3       30.01F
JUNEAU         PTCLDY    56  45  65 S7        30.02F
$$

LSZ147-162-251000-
LAKE SUPERIOR

STATION/POSITION TIME  TEMP    WIND        PRES    WAVE
                       AIR SEA DIR/SP/G            HT/PER
                 (UTC) (F)     (DEG/KT/KT) (MB)    (FT/S)
$$

LMZ867-665-643>646-251000-
LAKE MICHIGAN

STATION/POSITION TIME  TEMP    WIND        PRES    WAVE
                       AIR SEA DIR/SP/G            HT/PER
                 (UTC) (F)     (DEG/KT/KT) (MB)    (FT/S)
$$

TC  - TEMPERATURE IN CELSIUS
VSB - VISIBILITY IN STATUTE MILES
WCI - WIND CHILL INDEX
HX  - HEAT INDEX



USA.gov is the U.S. government's official web portal to all federal, state and local government web resources and services.